Location: Erba
(45.8000°N, 9.2500°E)
Time: 12:25:12
(UTC+02:00)

ISS - Pass Details

Date: 07 July 2020
Orbit: 417 x 420 km, 51.6° (Epoch: 02 July)

Event Time Altitude Azimuth Distance (km) Brightness Sun altitude
Exits shadow 04:09:42 - 278° (W) 1,896 -0.7 -12.4°
Reaches altitude 10° 04:10:46 10° 285° (WNW) 1,496 -1.2 -12.3°
Maximum altitude 04:13:49 32° 350° (N) 745 -2.1 -12.0°
Drops below altitude 10° 04:16:53 10° 56° (NE) 1,497 0.4 -11.7°
Sets 04:19:07 0° 67° (ENE) 2,361 1.3 -11.4°
